K1VL Weather Reports


Display with metric or nautical units.
time (UTC)temp
F
wind
direction
speed
MPH
gust
MPH
rain 1hr
in
rain 24hr
in
rain mn
in
humidity
%
barometer
mb
20260504015016 31 0.0 1.0 0.00 0.01 0.01 85 1009.7
20260504014517 31 0.0 1.0 0.00 0.01 0.01 84 1009.7
20260504014036 31 0.0 1.0 0.00 0.01 0.01 84 1009.7
20260504013557 32 0.0 1.0 0.00 0.01 0.01 84 1009.7
20260504013016 32 0.0 0.0 0.00 0.01 0.01 82 1009.6
20260504012036 33 0.0 0.0 0.00 0.01 0.01 81 1009.5
20260504011517 33 0.0 0.0 0.00 0.01 0.01 80 1009.5
20260504011016 33 0.0 0.0 0.00 0.01 0.01 79 1009.4
20260504010516 34 0.0 0.0 0.00 0.01 0.01 78 1009.3
20260504010019 34 0.0 0.0 0.00 0.01 0.01 77 1009.2
20260504005516 35 0.0 0.0 0.00 0.01 0.01 76 1009.2
20260504005016 35 0.0 0.0 0.00 0.01 0.01 74 1009.1
20260504004517 36 0.0 0.0 0.00 0.01 0.01 73 1009.0
20260504004017 37 0.0 0.0 0.00 0.01 0.01 71 1009.0
20260504003516 38 0.0 0.0 0.00 0.01 0.01 68 1008.9
20260504003016 39 0.0 1.0 0.00 0.01 0.01 62 1008.8
20260504002516 40 0.0 0.0 0.00 0.01 0.01 57 1008.8
20260504002016 41 0.0 2.0 0.00 0.01 0.01 54 1008.7
20260504001516 42 0.0 2.0 0.00 0.01 0.01 52 1008.7
20260504001016 42 315 1.0 4.0 0.00 0.01 0.01 51 1008.6
20260504000516 42 315 1.0 4.0 0.00 0.01 0.01 52 1008.6
20260504000016 42 293 1.0 4.0 0.00 0.01 0.01 52 1008.6
20260503235516 43 0.0 2.0 0.00 0.01 0.01 51 1008.6
20260503235016 43 315 2.0 7.0 0.00 0.01 0.01 50 1008.5
20260503234537 43 315 2.0 6.0 0.00 0.01 0.01 49 1008.5
20260503234016 44 293 2.0 5.0 0.00 0.01 0.01 49 1008.5
20260503233537 44 315 4.0 8.0 0.00 0.01 0.01 49 1008.4
20260503233017 44 315 2.0 7.0 0.00 0.01 0.01 49 1008.4
20260503232516 44 293 3.0 7.0 0.00 0.01 0.01 48 1008.4
20260503232016 44 315 4.0 10.0 0.00 0.01 0.01 48 1008.3
20260503231557 45 315 4.0 8.0 0.00 0.01 0.01 47 1008.4
20260503231057 45 315 5.0 13.0 0.00 0.01 0.01 46 1008.2
20260503230516 46 315 3.0 11.0 0.00 0.01 0.01 46 1008.3
20260503230036 46 315 5.0 11.0 0.00 0.01 0.01 45 1008.2
20260503225516 46 315 5.0 12.0 0.00 0.01 0.01 45 1008.1
20260503225016 46 315 5.0 9.0 0.00 0.03 0.01 45 1008.2
20260503224557 46 315 5.0 11.0 0.00 0.04 0.01 47 1008.2
20260503224016 45 293 5.0 12.0 0.00 0.04 0.01 46 1008.3
20260503223516 45 315 5.0 13.0 0.00 0.04 0.01 47 1008.3
20260503223057 45 315 6.0 15.0 0.00 0.04 0.01 48 1008.3
20260503222536 46 315 7.0 15.0 0.00 0.04 0.01 47 1008.3
20260503222016 45 315 7.0 13.0 0.00 0.04 0.01 48 1008.3
20260503221517 45 315 5.0 11.0 0.00 0.04 0.01 50 1008.2
20260503221016 45 293 2.0 6.0 0.00 0.04 0.01 52 1008.2
20260503220517 45 315 3.0 8.0 0.00 0.04 0.01 51 1008.3
20260503220016 44 315 3.0 6.0 0.00 0.04 0.01 52 1008.3
20260503215516 44 315 1.0 4.0 0.00 0.04 0.01 53 1008.3
20260503215036 44 315 2.0 6.0 0.00 0.04 0.01 53 1008.2
20260503214517 44 315 3.0 10.0 0.00 0.04 0.01 52 1008.2
20260503214016 45 315 4.0 12.0 0.00 0.04 0.01 51 1008.2
20260503213516 45 315 2.0 9.0 0.00 0.04 0.01 52 1008.1
20260503213017 45 293 3.0 9.0 0.00 0.04 0.01 52 1008.2
20260503212516 45 293 2.0 10.0 0.00 0.04 0.01 53 1008.2
20260503212017 45 315 4.0 12.0 0.00 0.04 0.01 52 1008.2
20260503211537 44 293 4.0 13.0 0.00 0.04 0.01 54 1008.1
20260503211036 44 315 3.0 9.0 0.00 0.04 0.01 55 1008.2
20260503210516 44 315 6.0 14.0 0.00 0.04 0.01 53 1008.2
20260503210037 44 315 8.0 13.0 0.00 0.04 0.01 52 1008.3
20260503205517 44 315 6.0 11.0 0.00 0.04 0.01 53 1008.2
20260503205016 44 315 8.0 16.0 0.00 0.04 0.01 52 1008.2
20260503204516 44 315 4.0 14.0 0.00 0.04 0.01 52 1008.2
20260503204017 44 315 5.0 14.0 0.00 0.04 0.01 54 1008.2
20260503203536 44 315 6.0 16.0 0.00 0.04 0.01 53 1008.1
20260503203036 45 293 5.0 13.0 0.00 0.04 0.01 52 1008.0
20260503202517 45 315 5.0 13.0 0.00 0.04 0.01 51 1008.1
20260503202037 45 315 6.0 17.0 0.00 0.04 0.01 53 1008.1
20260503201516 45 315 4.0 8.0 0.00 0.04 0.01 53 1008.2
20260503201037 44 293 4.0 10.0 0.00 0.04 0.01 55 1008.2
20260503200517 43 315 6.0 13.0 0.00 0.04 0.01 55 1008.2
20260503200037 43 315 6.0 12.0 0.00 0.04 0.01 54 1008.2
20260503195516 43 315 6.0 12.0 0.00 0.04 0.01 54 1008.3
20260503195037 43 315 6.0 15.0 0.00 0.04 0.01 54 1008.3
20260503194516 43 315 6.0 14.0 0.00 0.04 0.01 53 1008.4
20260503194017 44 315 8.0 18.0 0.00 0.04 0.01 52 1008.4
20260503193517 44 315 6.0 13.0 0.00 0.04 0.01 54 1008.5
20260503193017 44 293 4.0 14.0 0.00 0.04 0.01 53 1008.4
20260503192517 44 315 4.0 10.0 0.00 0.04 0.01 53 1008.6
20260503192037 44 315 4.0 12.0 0.00 0.04 0.01 55 1008.5
20260503191516 43 293 4.0 12.0 0.00 0.04 0.01 54 1008.5
20260503191016 43 315 7.0 13.0 0.00 0.04 0.01 53 1008.6
20260503190557 43 293 6.0 13.0 0.00 0.04 0.01 54 1008.6
20260503190016 43 315 5.0 12.0 0.00 0.04 0.01 54 1008.6
20260503185517 43 338 4.0 12.0 0.00 0.04 0.01 54 1008.7
20260503185016 43 315 6.0 16.0 0.00 0.04 0.01 53 1008.7
20260503184537 42 315 6.0 14.0 0.00 0.04 0.01 54 1008.6
20260503184037 42 315 6.0 13.0 0.00 0.04 0.01 54 1008.7
20260503183516 42 315 8.0 17.0 0.00 0.04 0.01 54 1008.7
20260503183016 43 315 9.0 16.0 0.00 0.04 0.01 52 1008.7
20260503182517 43 315 7.0 14.0 0.00 0.04 0.01 53 1008.7
20260503182017 43 315 5.0 12.0 0.00 0.05 0.01 52 1008.7
20260503181516 42 315 7.0 14.0 0.00 0.05 0.01 53 1008.7
20260503181037 42 315 7.0 17.0 0.00 0.05 0.01 54 1008.7
20260503180557 42 315 4.0 11.0 0.00 0.05 0.01 56 1008.7
20260503180037 41 315 4.0 10.0 0.00 0.05 0.01 56 1008.8
20260503175516 41 315 7.0 14.0 0.00 0.05 0.01 55 1008.8
20260503175037 42 315 5.0 15.0 0.00 0.05 0.01 56 1008.7
20260503174517 42 315 7.0 11.0 0.00 0.05 0.01 55 1008.8
20260503174017 42 315 8.0 17.0 0.00 0.05 0.01 53 1008.7
20260503173537 42 315 7.0 14.0 0.00 0.05 0.01 53 1008.7
20260503173016 42 315 7.0 13.0 0.00 0.05 0.01 53 1008.5
20260503172537 42 315 6.0 14.0 0.00 0.05 0.01 54 1008.7
20260503172016 42 315 6.0 16.0 0.00 0.05 0.01 54 1008.6
20260503171517 43 315 6.0 12.0 0.00 0.05 0.01 52 1008.6
20260503171016 43 315 6.0 13.0 0.00 0.05 0.01 51 1008.6
20260503170638 43 315 8.0 18.0 0.00 0.05 0.01 50 1008.6
20260503151010 41 315 7.0 15.0 0.00 0.08 0.01 66 1009.0
20260503150517 41 315 5.0 13.0 0.00 0.08 0.01 68 1009.0
20260503131017 39 315 4.0 10.0 0.01 0.11 0.01 83 1009.6
20260503130557 38 315 3.0 6.0 0.01 0.11 0.01 84 1009.6
20260503110517 34 315 3.0 8.0 0.00 0.11 0.00 94 1009.4
20260503081516 33 0.0 3.0 0.00 0.17 0.00 99 1009.9
20260503081016 33 338 1.0 6.0 0.00 0.17 0.00 99 1009.8
20260503080537 33 0.0 2.0 0.00 0.18 0.00 98 1009.9
20260503072537 33 0.0 0.0 0.00 0.19 0.00 99 1009.9
20260503072111 33 0.0 0.0 0.00 0.19 0.00 99 1009.9
20260503071517 33 0.0 0.0 0.00 0.19 0.00 99 1010.0
20260503071017 33 0.0 1.0 0.00 0.20 0.00 99 1010.0
20260503070517 33 315 1.0 2.0 0.00 0.20 0.00 99 1010.1
20260503055017 31 0.0 0.0 0.00 0.24 0.00 98 1010.7
20260503054516 31 0.0 0.0 0.00 0.25 0.00 98 1010.7
20260503054037 31 0.0 0.0 0.00 0.25 0.00 98 1010.7
20260503053516 31 0.0 0.0 0.00 0.25 0.00 98 1010.8
20260503053017 31 0.0 0.0 0.00 0.25 0.00 98 1010.8
20260503052517 31 0.0 1.0 0.00 0.25 0.00 98 1010.9
20260503052017 31 0.0 0.0 0.00 0.26 0.00 98 1010.9
20260503051537 31 0.0 1.0 0.00 0.27 0.00 98 1010.9
20260503051017 31 0.0 0.0 0.00 0.27 0.00 98 1011.0
20260503050517 31 0.0 0.0 0.00 0.27 0.00 98 1011.0
20260503050037 31 0.0 0.0 0.00 0.27 0.00 98 1011.1
20260503045517 31 0.0 0.0 0.00 0.27 0.00 98 1011.2
20260503045017 31 0.0 0.0 0.00 0.27 0.00 98 1011.2
20260503044517 30 0.0 0.0 0.00 0.27 0.00 98 1011.3
20260503044017 30 0.0 0.0 0.00 0.27 0.00 98 1011.3
20260503043517 30 0.0 0.0 0.00 0.27 0.00 98 1011.3
20260503043017 30 0.0 0.0 0.00 0.27 0.00 98 1011.3
20260503042517 30 0.0 0.0 0.00 0.27 0.00 98 1011.4
20260503042017 30 0.0 0.0 0.00 0.27 0.00 98 1011.4
20260503041517 30 0.0 0.0 0.00 0.27 0.00 98 1011.5
20260503041037 30 0.0 0.0 0.00 0.27 0.00 98 1011.5
20260503040516 30 0.0 0.0 0.00 0.27 0.00 98 1011.6
20260503040017 30 0.0 0.0 0.00 0.27 0.00 98 1011.7
20260503035517 30 0.0 0.0 0.00 0.27 0.27 98 1011.7
20260503035016 30 0.0 0.0 0.00 0.27 0.27 98 1011.6
20260503034517 30 0.0 0.0 0.00 0.27 0.27 98 1011.6
20260503034017 30 0.0 0.0 0.00 0.27 0.27 98 1011.7
20260503033537 30 0.0 0.0 0.00 0.27 0.27 98 1011.7
20260503033017 30 0.0 0.0 0.00 0.27 0.27 98 1011.7
20260503032517 30 0.0 1.0 0.00 0.27 0.27 97 1011.7
20260503032017 30 0.0 0.0 0.00 0.27 0.27 97 1011.7
20260503031517 30 0.0 0.0 0.00 0.27 0.27 97 1011.7
20260503031017 30 0.0 0.0 0.00 0.27 0.27 97 1011.7
20260503030517 31 0.0 0.0 0.00 0.27 0.27 97 1011.7
20260503030016 31 0.0 0.0 0.00 0.27 0.27 97 1011.7
20260503025537 31 0.0 0.0 0.00 0.27 0.27 97 1011.7
20260503025118 31 0.0 0.0 0.00 0.27 0.27 97 1011.6
20260503024537 31 0.0 0.0 0.00 0.27 0.27 97 1011.6
20260503024017 32 0.0 0.0 0.00 0.27 0.27 97 1011.6
20260503023537 32 0.0 0.0 0.00 0.27 0.27 97 1011.7
20260503023017 32 0.0 0.0 0.00 0.27 0.27 97 1011.8
20260503022517 32 0.0 0.0 0.00 0.27 0.27 97 1011.8
20260503022016 32 0.0 0.0 0.00 0.27 0.27 97 1011.8
20260503021517 33 0.0 0.0 0.00 0.27 0.27 96 1011.8
20260503021017 33 0.0 0.0 0.00 0.27 0.27 96 1011.9
20260503020517 33 0.0 0.0 0.00 0.27 0.27 96 1012.0
20260503020017 34 0.0 0.0 0.00 0.27 0.27 96 1012.0
20260503015517 34 0.0 0.0 0.00 0.27 0.27 96 1012.0